Wind_Speed
10 12 15 15 16 15 15 15 16 18 21 21 22 22 20 19 21 21 21 20 21 22 23 23 24 25 27
12 12 14 15 16 17 16 15 16 17 18 20 19 19 18 22 23 22 21 21 21 21 21 23 25 27 28
14 13 14 15 16 16 16 16 16 17 19 19 19 18 20 22 21 21 19 20 19 21 25 27 28 28 28
14 15 14 15 15 16 17 17 18 18 20 17 18 18 22 22 21 20 19 17 21 24 24 24 25 27 28
14 15 15 15 16 18 19 19 18 17 17 17 21 22 22 21 21 18 20 22 25 22 21 25 27 28 29
14 15 17 17 19 18 19 19 15 15 17 23 21 24 25 22 22 22 24 26 21 20 24 26 28 30 30
14 15 16 17 18 20 20 19 19 20 23 24 22 23 23 22 23 26 25 20 21 22 26 27 28 29 28
14 16 16 17 18 19 21 22 19 18 19 21 23 25 24 22 24 22 20 22 24 25 27 28 30 28 28
14 17 17 18 18 19 19 18 20 21 21 23 22 22 23 25 18 18 24 23 24 28 29 30 27 27 29
13 13 13 13 13 12 15 16 18 18 16 15 19 21 12 18 17 23 23 27 26 28 29 27 24 28 29
13 12 11 10 10 11 13 15 17 20 23 21 17 18 16 20 19 23 25 27 30 27 27 24 25 27 29
11 11 10 12 13 14 16 16 17 22 26 22 21 20 21 23 21 21 27 26 26 29 26 26 28 27 28
9 10 11 13 15 17 17 18 21 22 18 16 18 21 21 15 17 24 28 29 26 19 28 26 28 31 33
9 11 13 15 16 16 17 20 20 20 19 21 18 17 17 18 20 26 26 19 27 26 27 29 28 29 29
10 11 14 16 17 17 19 19 18 19 21 20 18 18 19 22 21 22 23 23 24 25 26 28 28 29 30
12 14 15 16 18 18 17 17 18 18 18 19 19 17 17 18 19 24 21 23 25 27 25 24 30 33 30
16 17 18 18 17 16 16 16 17 18 19 18 15 14 8 9 18 15 16 24 26 23 23 24 28 35 33
Wind_Direction
291 306 313 317 318 315 311 307 311 312 314 317 318 316 317 320 321 318 314 312 308 304 302 302 302 302 303
296 305 307 312 310 309 306 300 301 300 301 309 310 305 309 316 316 313 312 314 311 308 306 304 301 300 299
295 302 301 306 307 306 304 303 302 302 308 310 308 305 304 309 309 308 304 308 311 307 304 303 302 300 297
298 303 303 305 299 303 308 306 307 308 308 311 306 306 308 309 308 304 304 303 310 308 305 305 305 303 298
297 298 300 304 309 312 308 311 307 306 307 310 310 309 308 311 309 302 305 304 307 306 305 306 307 305 300
290 287 295 301 305 305 305 304 303 299 302 302 301 302 304 306 305 304 307 307 305 302 307 308 306 307 302
288 292 301 301 301 300 296 294 293 299 308 299 303 300 305 304 304 306 309 306 304 304 308 308 309 308 304
293 294 296 300 296 292 286 284 282 288 294 291 300 298 304 303 305 306 306 304 304 305 309 310 310 309 304
298 299 298 297 296 299 295 300 299 302 304 298 296 292 302 300 297 303 310 307 306 307 308 310 309 310 305
298 295 299 299 305 301 303 300 300 300 298 304 303 299 292 290 294 306 312 312 308 307 308 309 309 312 306
296 299 302 307 317 312 308 302 298 289 293 298 292 288 280 292 295 303 309 312 309 307 308 306 307 310 305
294 298 312 319 317 316 307 303 291 292 292 284 281 280 286 288 297 307 308 310 308 304 303 308 308 309 308
301 303 312 312 316 317 316 309 305 301 301 303 299 292 281 282 294 301 307 309 308 307 308 306 306 308 309
299 301 316 319 315 317 315 312 313 311 307 307 307 292 274 277 285 293 297 295 304 308 308 306 305 303 303
305 312 312 311 310 311 307 305 305 307 308 305 299 295 281 281 285 287 296 299 304 310 311 307 305 305 307
307 304 299 303 303 302 306 305 298 301 301 302 302 298 292 283 282 281 288 297 304 310 308 305 306 309 310
297 295 295 292 296 306 301 304 301 299 296 301 298 292 288 294 303 297 288 300 305 306 308 305 300 301 307
Height
839 836 835 832 829 828 825 823 820 817 813 809 806 805 803 800 797 795 793 788 786 784 782 778 775 773 770
838 834 833 831 829 827 825 821 819 817 812 811 805 804 801 799 796 790 786 784 781 779 777 773 770 768 765
834 832 831 829 826 824 822 819 816 813 810 805 802 801 799 793 792 790 784 781 778 775 773 769 765 762 759
831 829 828 827 824 819 815 814 812 809 807 800 797 796 794 792 786 785 781 778 775 771 767 764 760 756 752
827 827 824 822 820 817 814 810 808 806 801 800 798 791 786 785 782 780 777 773 769 765 762 759 755 751 746
825 822 820 816 815 811 808 808 802 803 798 796 792 789 784 781 778 776 772 767 764 761 757 753 749 744 739
821 820 816 814 812 809 809 807 803 798 798 793 790 785 779 777 774 770 766 762 759 756 752 747 743 737 732
820 814 814 812 810 802 801 799 797 796 793 786 784 780 775 773 770 766 762 759 755 750 746 741 736 731 726
812 811 810 807 806 802 799 796 792 788 787 783 780 775 772 769 766 763 760 755 750 745 740 735 730 725 719
809 799 799 800 798 800 798 794 790 785 783 781 776 774 767 764 761 759 754 750 744 739 733 728 725 719 713
807 802 799 794 792 794 793 793 789 784 780 778 773 770 767 759 755 753 749 743 738 732 728 723 720 716 708
802 801 797 794 792 787 787 785 785 780 776 774 769 766 762 756 751 747 744 739 734 728 723 718 713 707 703
799 799 797 791 788 785 782 781 779 776 772 769 765 762 759 756 751 745 740 733 729 724 719 713 707 701 693
796 795 792 789 787 782 780 779 775 770 767 764 761 759 756 753 749 741 737 733 726 721 715 708 702 697 690
793 790 789 787 783 780 778 775 773 768 763 761 759 755 752 748 744 738 733 728 723 717 712 703 696 690 683
789 787 786 783 780 777 775 773 769 766 762 759 755 751 747 742 740 733 730 725 720 714 708 701 690 683 678
786 785 782 779 777 775 772 770 766 763 759 756 752 749 743 736 735 732 727 722 716 710 705 699 690 678 673